sat.trackr.live / text

‹ back to catalog

SITRO-AIS 28

NORAD 59071 · 2024-039U

PAYLOAD ACTIVE UNKNOWN

§ Identity

Operator
Country
CIS
Launch date
2024-02-29
Launch site
VOSTO
Launch vehicle
Mass (kg)
RCS (m²)

Purposes: tech_demo

External: N2YO · Heavens-Above · Gunter

§ Orbital elements

Epoch: 2026-05-25T05:07:17.129280Z

Period
96.41 min
Inclination
95.3920°
Eccentricity
0.0145890
Mean motion
14.93590519 rev/d
Perigee alt
485.1 km
Apogee alt
688.4 km
Semi-major
6,964.9 km
B*
3.3397e-4
RAAN
219.5164°
Arg perigee
48.1584°
Mean anomaly
313.1988°
Rev number
12,131

§ Raw data

SITRO-AIS 281 59071U 24039U   26145.21339270  .00004314  00000+0  33397-3 0  99942 59071  95.3920 219.5164 0145890  48.1584 313.1988 14.93590519121314

JSON: /api/v1/satellites/59071 · /tle

For live sub-satellite position, see the globe view (requires WebGL).

§ Visibility from observer

Set your observer location to see the next 7 days of passes ≥ 10°. The values pass through the URL so the page stays shareable.

No JS? Fill the form by hand. The geolocation button needs JavaScript.

§ Radio — SatNOGS DB

ModeDescriptionDownlinkUplink
GMSK USP Mode U - GMSK2k4 USP 401.093 MHz

1 transmitter · refreshed weekly from db.satnogs.org